Amarillo, TX

10:18 PM CDT on October 17, 2017 (GMT -0500)
Amarillo International

Weather History for KAMA - October, 2013

Change the Weather History Date:

Thursday, October 10, 2013

  Actual Average Record
Temperature  
Mean Temperature 71 °F 60 °F  
Max Temperature 84 °F 74 °F 93 °F (1965)
Min Temperature 57 °F 47 °F 27 °F (2009)
Degree Days  
Heating Degree Days 0 6  
Month to date heating degree days 22 48  
Since 1 July heating degree days 31 92  
Cooling Degree Days 6 1  
Month to date cooling degree days 30 16  
Year to date cooling degree days 1802 1386  
Growing Degree Days 20 (Base 50)    
Moisture  
Dew Point 50 °F    
Average Humidity 54    
Maximum Humidity 77    
Minimum Humidity 31    
Precipitation  
Precipitation 0.01 in 0.05 in 0.70 in (2007)
Month to date precipitation 0.01 0.60  
Year to date precipitation 14.21 17.79  
Snow  
Snow 0.00 in 0.00 in T in (2007)
Month to date snowfall 0.0 0.0  
Since 1 July snowfall 0.0 T  
Since 1 September snowfall 0.0 T  
Snow Depth 0.00 in    
Sea Level Pressure  
Sea Level Pressure 29.75 in    
Wind  
Wind Speed 20 mph (South)    
Max Wind Speed 36 mph    
Max Gust Speed 44 mph    
Visibility 10 miles    
Events Rain , Thunderstorm    
T = Trace of Precipitation, MM = Missing Value Source: NWS Daily Summary

Daily Weather History Graph

Daily Weather History Graph

Search for Another Location

Airport or City:

Trip Planner

Search our weather history database for the weather conditions in past years. The results will help you decide how hot, cold, wet, or windy it might be!

Date:

Astronomy

Oct. 10, 2013 Rise Set
Actual Time 7:49 AM CDT 7:17 PM CDT
Civil Twilight 7:23 AM CDT 7:43 PM CDT
Nautical Twilight 6:54 AM CDT 8:12 PM CDT
Astronomical Twilight 6:24 AM CDT 8:42 PM CDT
Moon 1:34 PM CDT (10/10) No Moon Set
Length of Visible Light 12h 19m
Length of Day
11h 28m
Waxing Crescent, 36% of the Moon is Illuminated
Oct 10
Waxing Crescent
Oct 11
First Quarter
Oct 18
Full
Oct 26
Last Quarter
Nov 3
New

Hourly Weather History & Observations

Time (CDT) Temp. Dew Point Humidity Pressure Visibility Wind Dir Wind Speed Gust Speed Precip Events Conditions
12:53 AM 66.0 °F 48.9 °F 54% 29.82 in 10.0 mi SSE 17.3 mph 26.5 mph N/A   Clear
1:53 AM 64.0 °F 48.9 °F 58% 29.82 in 10.0 mi SSE 15.0 mph - N/A   Clear
2:53 AM 62.1 °F 48.9 °F 62% 29.83 in 10.0 mi South 16.1 mph - N/A   Clear
3:53 AM 62.1 °F 48.9 °F 62% 29.82 in 10.0 mi South 16.1 mph - N/A   Clear
4:53 AM 60.1 °F 50.0 °F 69% 29.82 in 10.0 mi South 15.0 mph - N/A   Clear
5:53 AM 57.9 °F 50.0 °F 75% 29.83 in 10.0 mi South 12.7 mph - N/A   Clear
6:53 AM 57.9 °F 50.0 °F 75% 29.83 in 10.0 mi South 13.8 mph - N/A   Clear
7:53 AM 57.9 °F 50.0 °F 75% 29.84 in 10.0 mi South 13.8 mph - N/A   Clear
8:53 AM 60.1 °F 50.0 °F 69% 29.84 in 10.0 mi South 15.0 mph - N/A   Clear
9:53 AM 64.0 °F 50.0 °F 60% 29.83 in 10.0 mi South 18.4 mph - N/A   Clear
10:53 AM 70.0 °F 50.0 °F 49% 29.83 in 10.0 mi South 19.6 mph 28.8 mph N/A   Clear
11:53 AM 73.9 °F 48.9 °F 41% 29.80 in 10.0 mi SSE 20.7 mph 27.6 mph N/A   Clear
12:53 PM 77.0 °F 48.9 °F 37% 29.76 in 10.0 mi South 23.0 mph 29.9 mph N/A   Clear
1:53 PM 80.1 °F 48.9 °F 34% 29.72 in 10.0 mi SSE 23.0 mph 29.9 mph N/A   Clear
2:53 PM 82.9 °F 48.0 °F 29% 29.67 in 10.0 mi SSE 24.2 mph 31.1 mph N/A   Clear
3:53 PM 82.9 °F 48.0 °F 29% 29.64 in 10.0 mi South 25.3 mph 36.8 mph N/A   Clear
4:53 PM 82.9 °F 50.0 °F 32% 29.63 in 10.0 mi SSE 34.5 mph 41.4 mph N/A   Clear
5:53 PM 81.0 °F 51.1 °F 35% 29.62 in 10.0 mi South 28.8 mph 40.3 mph N/A   Clear
6:53 PM 79.0 °F 51.1 °F 38% 29.61 in 10.0 mi SSE 27.6 mph 35.7 mph N/A   Clear
7:53 PM 75.9 °F 52.0 °F 43% 29.62 in 10.0 mi SSE 21.9 mph 31.1 mph N/A   Scattered Clouds
8:53 PM 73.9 °F 52.0 °F 46% 29.62 in 10.0 mi SSE 27.6 mph 35.7 mph N/A   Scattered Clouds
9:43 PM 69.8 °F 53.6 °F 56% 29.80 in 10.0 mi South 21.9 mph 36.8 mph 0.01 in Thunderstorm Thunderstorm
9:53 PM 68.0 °F 55.0 °F 63% 29.69 in 10.0 mi SW 13.8 mph 26.5 mph 0.01 in Thunderstorm Thunderstorm
10:31 PM 68.0 °F 53.6 °F 60% 29.83 in 10.0 mi South 18.4 mph - N/A   Clear
10:53 PM 66.0 °F 54.0 °F 65% 29.70 in 10.0 mi South 13.8 mph - N/A   Clear
11:53 PM 66.0 °F 54.0 °F 65% 29.69 in 10.0 mi South 12.7 mph - N/A   Mostly Cloudy